Tracking 19832 objects as of 24-Aug-2019
HD Live streaming from Space Station
objects crossing your sky now

FENGYUN 1C DEB

Track FENGYUN 1C DEB now!
10-day predictions


NORAD ID: 36698
Int'l Code: 1999-025DZU
Perigee: 722.3 km
Apogee: 817.0 km
Inclination: 99.0 °
Period: 100.1 minutes
Semi major axis: 7140 km
RCS: 0.0138 m2 (small)
Launch date: May 10, 1999
Source: People's Republic of China (PRC)
Launch site: Taiyaun Space Center, China (TSC)

Note: This is SATELLITE DEBRIS
aabbcc
Your satellite tracking list
Your tracking list is empty




NASA's NSSDC Master Catalog

Two Line Element Set (TLE):
1 36698U 99025DZU 13088.53194537  .00006281  00000-0  20064-2 0  9995
2 36698 099.0101 196.4731 0066355 270.5638 151.8757 14.38782353204937
Source of the keplerian elements: AFSPC